Regional Weather Roundup
Issued by NWS

Home | Current Version | Previous Version | Text Only | Print | Product List | Glossary On
Versions: 1 2 3 4 5 6 7 8 9 10 11 12 13 14 15 16 17 18 19 20 21 22 23 24 25 26 27 28 29 30 31 32 33 34 35 36 37 38 39 40 41 42 43 44 45 46 47 48 49 50
000
ASUS46 KSEW 020010
RWRWA

WASHINGTON REGIONAL WEATHER ROUNDUP
NATIONAL WEATHER SERVICE SEATTLE WA
400 PM PST SUN MAR 01 2015

NOTE:"FAIR" INDICATES FEW OR NO CLOUDS BELOW 12,000 FEET WITH NO
SIGNIFICANT WEATHER AND/OR OBSTRUCTIONS TO VISIBILITY.

WAZ505-507>509-020100-
SEATTLE, TACOMA, EVERETT, AND VICINITY

CITY           SKY/WX    TMP DP  RH WIND       PRES   REMARKS
EVERETT        CLOUDY    48  29  47 W5        30.04F
6HR MIN TEMP:  45; 6HR MAX TEMP:  50;

BOEING FIELD   CLOUDY    54  28  36 CALM      30.05F
6HR MIN TEMP:  48; 6HR MAX TEMP:  55;

RENTON         CLOUDY    53  25  33 CALM      30.04F
6HR MIN TEMP:  43; 6HR MAX TEMP:  55;

SEATAC AIRPORT CLOUDY    51  27  39 CALM      30.04F
6HR MIN TEMP:  45; 6HR MAX TEMP:  52;

JBLM-MCCHORD   CLOUDY    54  30  39 W6        30.03F
6HR MIN TEMP:  44; 6HR MAX TEMP:  56;

PUYALLUP       FAIR      54  27  35 W5        30.03F
BREMERTON      CLOUDY    52  34  50 CALM      30.06F
6HR MIN TEMP:  45; 6HR MAX TEMP:  52;

JBLM-FT LEWIS  CLOUDY    54  30  40 SW6       30.03F
6HR MIN TEMP:  44; 6HR MAX TEMP:  56; 6HR PCP: TRACE;

TACOMA NARROWS CLOUDY    52  31  44 S3        30.04F
6HR MIN TEMP:  42; 6HR MAX TEMP:  53;

$$

WAZ001-503-506-510-514-515-020100-
NORTH INTERIOR

CITY           SKY/WX    TMP DP  RH WIND       PRES   REMARKS
BELLINGHAM     CLOUDY    48  34  58 W3        30.05F
6HR MIN TEMP:  44; 6HR MAX TEMP:  50;

FRIDAY HARBOR  CLOUDY    48  33  56 CALM      30.07F
6HR MIN TEMP:  44; 6HR MAX TEMP:  50;

EASTSOUND      CLOUDY    45  39  81 NW6       30.06F
PORT ANGELES   CLOUDY    47  34  60 NW5       30.07F
6HR MIN TEMP:  45; 6HR MAX TEMP:  48;

NAS WHIDBEY    CLOUDY    49  36  61 W6        30.07F
6HR MIN TEMP:  47; 6HR MAX TEMP:  52;

ARLINGTON      CLOUDY    52  36  54 NW6       30.06F
6HR MIN TEMP:  41; 6HR MAX TEMP:  52;

BURLINGTON     SUNNY     52  34  50 NW3       30.07F
$$

WAZ020-022-039-040-504-511-512-020100-
SOUTHWEST INTERIOR

CITY           SKY/WX    TMP DP  RH WIND       PRES   REMARKS
SHELTON        CLOUDY    51  34  52 W10       30.03F
6HR MIN TEMP:  42; 6HR MAX TEMP:  54;

OLYMPIA        CLOUDY    54  27  35 W7        30.04F
6HR MIN TEMP:  43; 6HR MAX TEMP:  56;

CHEHALIS       FAIR      57  30  35 NW5       30.04F
KELSO          PTSUNNY   57  27  30 CALM      30.07F
6HR MIN TEMP:  39; 6HR MAX TEMP:  57;

VANCOUVER      MOSUNNY   56  12  17 CALM      30.04F
6HR MIN TEMP:  41; 6HR MAX TEMP:  57;

SCAPPOOSE, OR  PTSUNNY   56  17  21 CALM      30.03F
6HR MIN TEMP:  43; 6HR MAX TEMP:  57;

PORTLAND, OR   CLOUDY    56  19  23 CALM      30.04F
6HR MIN TEMP:  41; 6HR MAX TEMP:  57;

$$

WAZ021-516-517-020100-
WASHINGTON COAST

CITY           SKY/WX    TMP DP  RH WIND       PRES   REMARKS
FORKS          CLOUDY    47  41  80 W7        30.07F
6HR MIN TEMP:  45; 6HR MAX TEMP:  51;

HOQUIAM        CLOUDY    50  41  71 SW10      30.06F
6HR MIN TEMP:  44; 6HR MAX TEMP:  52;

ASTORIA, OR    CLOUDY    50  41  71 W10       30.08F
6HR MIN TEMP:  43; 6HR MAX TEMP:  54;

$$

WAZ019-023-024-040-518-519-020100-
CASCADE MOUNTAINS AND COLUMBIA GORGE

CITY           SKY/WX    TMP DP  RH WIND       PRES   REMARKS
TROUTDALE, OR  MOSUNNY   56  20  24 W3        30.03F
6HR MIN TEMP:  45; 6HR MAX TEMP:  58;

THE DALLES, OR MOSUNNY   56  16  20 CALM      30.04F
6HR MIN TEMP:  37; 6HR MAX TEMP:  57;

$$

WAZ026-027-041>044-520-521-020100-
EAST SLOPES

CITY           SKY/WX    TMP DP  RH WIND       PRES   REMARKS
OMAK           CLOUDY    47  18  31 S15       30.02F
6HR MIN TEMP:  35; 6HR MAX TEMP:  48;

WENATCHEE      CLOUDY    49  23  36 SE7       30.01F
6HR MIN TEMP:  38; 6HR MAX TEMP:  49;

ELLENSBURG     CLOUDY    50  19  29 SE6       30.00F
6HR MIN TEMP:  37; 6HR MAX TEMP:  52;

YAKIMA         PTSUNNY   52  20  28 S5        30.03F
6HR MIN TEMP:  42; 6HR MAX TEMP:  54;

$$

WAZ028-034-035-020100-
COLUMBIA BASIN

CITY           SKY/WX    TMP DP  RH WIND       PRES   REMARKS
EPHRATA        PTSUNNY   48  18  30 SE12      30.03F
6HR MIN TEMP:  35; 6HR MAX TEMP:  49;

MOSES LAKE     PTSUNNY   49  17  28 S10       30.05F
6HR MIN TEMP:  34; 6HR MAX TEMP:  49;

PASCO          MOSUNNY   52  13  21 W6        30.08F
6HR MIN TEMP:  37; 6HR MAX TEMP:  54;

HERMISTON, OR  SUNNY     52  18  26 NE5       30.05F
6HR MIN TEMP:  40; 6HR MAX TEMP:  53;

$$

WAZ036>038-020100-
NORTHEAST WASHINGTON

CITY           SKY/WX    TMP DP  RH WIND       PRES   REMARKS
SPOKANE GEIGER PTSUNNY   43  10  26 VRB5      30.03F
6HR MIN TEMP:  32; 6HR MAX TEMP:  44;

SPOKANE FELTS  PTSUNNY   45  10  24 SW3       30.05F
6HR MIN TEMP:  33; 6HR MAX TEMP:  46;

FAIRCHILD AFB  CLOUDY    42  12  29 S7        30.03F
6HR MIN TEMP:  33; 6HR MAX TEMP:  44; 6HR PCP: TRACE;

COEURDALENE,ID PTSUNNY   43   9  24 W5        30.04F
6HR MIN TEMP:  34; 6HR MAX TEMP:  43;

DEER PARK      CLOUDY    41   9  26 CALM      30.05F
6HR MIN TEMP:  32; 6HR MAX TEMP:  41;

$$

WAZ029>033-020100-
SOUTHEAST WASHINGTON

CITY           SKY/WX    TMP DP  RH WIND       PRES   REMARKS
PULLMAN        SUNNY     43  14  31 VRB3      30.05F
6HR MIN TEMP:  36; 6HR MAX TEMP:  44;

LEWISTON, ID   SUNNY     47  15  27 NW5       30.05F
6HR MIN TEMP:  35; 6HR MAX TEMP:  49;

WALLA WALLA    SUNNY     51  14  22 N6        30.04F
6HR MIN TEMP:  43; 6HR MAX TEMP:  52;

PENDLETON, OR  SUNNY     49  17  28 NW5       30.03F
6HR MIN TEMP:  38; 6HR MAX TEMP:  50;

$$


USA.gov is the U.S. government's official web portal to all federal, state and local government web resources and services.